Waarnemingen

Advertentie
Mijn weer
Palermo/Punta Raisi, Italië (16405): temperatuur & dauwpunt: 14.10.2017 21:00:00 - 20.10.2017 21:00:00 (CEST)Palermo/Punta Raisi, Italië (16405): windsnelheid: 14.10.2017 21:00:00 - 20.10.2017 21:00:00 (CEST)Palermo/Punta Raisi, Italië (16405): windrichting: 14.10.2017 21:00:00 - 20.10.2017 21:00:00 (CEST)Palermo/Punta Raisi, Italië (16405): luchtdruk: 14.10.2017 21:00:00 - 20.10.2017 21:00:00 (CEST)Palermo/Punta Raisi, Italië (16405): zicht: 14.10.2017 21:00:00 - 20.10.2017 21:00:00 (CEST)Palermo/Punta Raisi, Italië (16405): neerslag: 14.10.2017 21:00:00 - 20.10.2017 21:00:00 (CEST)
Datum & Tijd tt [°C] td [°C] ff [km/u] ff [kn] dd ppp [hPa] vv [km] rr [mm]
20.10.2017 21:00:00 21,0 17,0 5 3 - - 10 -
20.10.2017 20:00:00 21,4 16,9 5 3 - 1018,2 10 -
20.10.2017 19:00:00 22,0 17,0 5 3 - - 10 -
20.10.2017 18:00:00 23,0 17,0 8 4 - - 10 -
20.10.2017 17:00:00 24,3 16,0 31 17 NO 1016,8 10 0,0
20.10.2017 16:00:00 25,0 16,0 34 18 NO - 10 -
20.10.2017 15:00:00 25,0 18,0 29 16 NO - 10 -
20.10.2017 14:00:00 24,3 16,6 29 16 NO 1017,1 10 -
20.10.2017 13:00:00 23,0 17,0 9 5 N - 10 -
20.10.2017 12:00:00 22,0 16,0 4 2 - - 10 -
20.10.2017 11:00:00 21,8 16,0 8 4 NW 1017,7 10 0,0
20.10.2017 10:00:00 22,0 15,0 8 4 - - 10 -
20.10.2017 09:00:00 18,0 14,0 8 4 Z - 10 -
20.10.2017 08:00:00 16,5 12,7 9 5 Z 1016,4 10 -
20.10.2017 07:00:00 16,0 12,0 4 2 - - 10 -
20.10.2017 06:00:00 17,0 12,0 5 3 ZO - 10 -
20.10.2017 05:00:00 18,6 14,0 16 9 NO 1016,3 10 0,0
20.10.2017 04:00:00 17,0 12,0 5 3 Z - 10 -
20.10.2017 03:00:00 18,0 12,0 4 2 Z - 10 -
20.10.2017 02:00:00 16,9 11,6 8 4 Z 1016,6 10 -
20.10.2017 01:00:00 19,0 13,0 5 3 - - 10 -
20.10.2017 00:00:00 19,0 13,0 5 3 ZO - 10 -
19.10.2017 23:00:00 18,8 14,3 8 4 - 1016,9 10 0,0
19.10.2017 22:00:00 20,0 14,0 4 2 - - 10 -
19.10.2017 21:00:00 21,0 14,0 5 3 O - 10 -
19.10.2017 20:00:00 20,8 14,3 9 5 - 1016,7 10 -
19.10.2017 19:00:00 21,0 13,0 22 12 ONO - 10 -
19.10.2017 18:00:00 23,0 13,0 28 15 NO - 10 -
19.10.2017 17:00:00 22,9 12,6 34 18 NO 1016,4 10 0,0
19.10.2017 16:00:00 23,0 13,0 34 18 NO - 10 -
19.10.2017 15:00:00 23,0 13,0 29 16 NO - 10 -
19.10.2017 14:00:00 22,3 13,9 26 14 NO 1017,6 10 -
19.10.2017 13:00:00 22,0 14,0 24 13 NNO - 10 -
19.10.2017 12:00:00 22,0 15,0 15 8 NNO - 10 -
19.10.2017 11:00:00 21,5 15,2 18 10 NNO 1018,7 10 0,0
19.10.2017 10:00:00 21,0 15,0 4 2 ZO - 10 -
19.10.2017 09:00:00 18,0 12,0 8 4 ZO - 10 -
19.10.2017 08:00:00 15,9 11,2 9 5 ZZO 1017,9 10 -
19.10.2017 07:00:00 16,0 13,0 8 4 ZZO - 10 -
19.10.2017 06:00:00 - - - - - - - -
19.10.2017 05:00:00 17,0 13,4 11 6 Z 1018,1 10 0,0
19.10.2017 04:00:00 18,0 14,0 13 7 Z - 10 -
19.10.2017 03:00:00 19,0 15,0 16 9 ZZW - 10 -
19.10.2017 02:00:00 19,3 14,6 9 5 - 1018,8 10 -
19.10.2017 01:00:00 17,0 14,0 8 4 - - 10 -
19.10.2017 00:00:00 17,0 14,0 8 4 Z - 10 -
18.10.2017 23:00:00 18,3 14,1 5 3 Z 1018,9 10 0,0
18.10.2017 22:00:00 19,0 14,0 5 3 ZZO - 10 -
18.10.2017 21:00:00 20,0 15,0 5 3 O - 10 -
18.10.2017 20:00:00 19,9 15,0 24 13 NO 1018,9 10 -
18.10.2017 19:00:00 21,0 15,0 28 15 NO - 10 -
18.10.2017 18:00:00 22,0 16,0 29 16 NO - 10 -
18.10.2017 17:00:00 22,1 16,2 31 17 NO 1018,5 10 0,0
18.10.2017 16:00:00 22,0 16,0 28 15 NNO - 10 -
18.10.2017 15:00:00 22,0 16,0 29 16 NNO - 10 -
18.10.2017 14:00:00 21,9 16,0 9 5 NNO 1019,9 10 -
18.10.2017 13:00:00 22,0 15,0 9 5 WNW - 10 -
18.10.2017 12:00:00 21,0 15,0 8 4 NW - 10 -
18.10.2017 11:00:00 21,0 14,9 8 4 - 1021,5 10 0,0
18.10.2017 10:00:00 20,0 15,0 8 4 - - 10 -
18.10.2017 09:00:00 16,0 14,0 8 4 Z - 10 -
18.10.2017 08:00:00 15,4 13,3 5 3 Z 1021,2 10 -
18.10.2017 07:00:00 16,0 14,0 9 5 ONO - 10 -
18.10.2017 06:00:00 17,0 14,0 2 1 - - 10 -
18.10.2017 05:00:00 16,0 14,1 8 4 Z 1021,4 10 0,0
18.10.2017 04:00:00 17,0 16,0 2 1 ZO - 10 -
18.10.2017 03:00:00 18,0 16,0 2 1 - - 10 -
18.10.2017 02:00:00 17,4 15,2 8 4 ZZO 1022,5 10 -
18.10.2017 01:00:00 17,0 15,0 8 4 ZZO - 10 -
18.10.2017 00:00:00 17,0 15,0 9 5 Z - 10 -
17.10.2017 23:00:00 17,1 14,5 8 4 Z 1023,3 10 0,0
17.10.2017 22:00:00 19,0 16,0 5 3 Z - 10 -
17.10.2017 21:00:00 19,0 16,0 8 4 ZO - 10 -
17.10.2017 20:00:00 19,8 16,6 24 13 NO 1023,3 10 -
17.10.2017 19:00:00 21,0 17,0 28 15 NO - 10 -
17.10.2017 18:00:00 21,0 17,0 28 15 NNO - 10 -
17.10.2017 17:00:00 21,8 16,8 28 15 NNO 1023,4 10 0,0
17.10.2017 16:00:00 22,0 17,0 31 17 NO - 10 -
17.10.2017 15:00:00 22,0 17,0 24 13 NNO - 10 -
17.10.2017 14:00:00 22,2 14,8 11 6 NNO 1024,7 10 -
17.10.2017 13:00:00 22,0 15,0 5 3 NNW - 10 -
17.10.2017 12:00:00 21,0 16,0 8 4 N - 10 -
17.10.2017 11:00:00 21,0 15,6 4 2 - 1026,2 10 0,0
17.10.2017 10:00:00 20,0 16,0 4 2 WNW - 10 -
17.10.2017 09:00:00 18,0 13,0 5 3 Z - 10 -
17.10.2017 08:00:00 16,2 12,2 4 2 - 1025,4 10 -
17.10.2017 07:00:00 16,0 13,0 2 1 - - 10 -
17.10.2017 06:00:00 18,0 14,0 4 2 - - 10 -
17.10.2017 05:00:00 15,6 12,1 8 4 Z 1025,2 10 0,0
17.10.2017 04:00:00 16,0 13,0 8 4 Z - 10 -
17.10.2017 03:00:00 16,0 13,0 8 4 Z - 10 -
17.10.2017 02:00:00 18,0 14,5 18 10 NO 1026,0 10 -
17.10.2017 01:00:00 18,0 14,0 4 2 - - 10 -
17.10.2017 00:00:00 16,0 12,0 8 4 ZZO - 10 -
16.10.2017 23:00:00 16,8 13,3 5 3 Z 1026,6 10 0,0
16.10.2017 22:00:00 18,0 14,0 5 3 ZZO - 10 -
16.10.2017 21:00:00 18,0 14,0 8 4 Z - 10 -
16.10.2017 20:00:00 19,8 15,5 22 12 NO 1026,6 10 -
16.10.2017 19:00:00 21,0 16,0 28 15 NO - 10 -
16.10.2017 18:00:00 22,0 16,0 34 18 NO - 10 -
16.10.2017 17:00:00 22,3 16,2 35 19 NO 1025,9 10 0,0
16.10.2017 16:00:00 22,0 17,0 35 19 NO - 10 -
16.10.2017 15:00:00 22,0 16,0 34 18 NO - 10 -
16.10.2017 14:00:00 22,2 15,7 28 15 NNO 1026,9 10 -
16.10.2017 13:00:00 22,0 16,0 5 3 WNW - 10 -
16.10.2017 12:00:00 21,0 15,0 9 5 NW - 10 -
16.10.2017 11:00:00 21,4 14,0 18 10 NNO 1027,7 10 0,0
16.10.2017 10:00:00 20,0 14,0 5 3 - - 10 -
16.10.2017 09:00:00 16,0 12,0 9 5 ZZO - 10 -
16.10.2017 08:00:00 14,8 11,0 5 3 Z 1026,5 10 -
16.10.2017 07:00:00 15,0 11,0 5 3 Z - 10 -
16.10.2017 06:00:00 15,0 11,0 5 3 Z - 10 -
16.10.2017 05:00:00 15,8 11,4 5 3 Z 1026,5 10 0,0
16.10.2017 04:00:00 17,0 12,0 5 3 Z - 10 -
16.10.2017 03:00:00 18,0 12,0 5 3 ZZO - 10 -
16.10.2017 02:00:00 17,9 11,6 8 4 OZO 1026,9 10 -
16.10.2017 01:00:00 18,0 13,0 26 14 NO - 10 -
16.10.2017 00:00:00 19,0 14,0 18 10 NO - 10 -
15.10.2017 23:00:00 17,5 12,5 26 14 NO 1027,5 10 0,0
15.10.2017 22:00:00 19,0 15,0 26 14 NO - 10 -
15.10.2017 21:00:00 20,0 17,0 29 16 NO - 10 -
15.10.2017 20:00:00 20,8 16,3 26 14 NO 1027,1 10 -
15.10.2017 19:00:00 21,0 17,0 31 17 NO - 10 -
15.10.2017 18:00:00 22,0 17,0 35 19 NO - 10 -
15.10.2017 17:00:00 22,4 16,7 37 20 NO 1026,7 10 0,0
15.10.2017 16:00:00 22,0 17,0 39 21 NO - 10 -
15.10.2017 15:00:00 22,0 17,0 35 19 NO - 10 -
15.10.2017 14:00:00 22,3 17,4 34 18 NNO 1027,3 10 -
15.10.2017 13:00:00 22,0 16,0 29 16 NNO - 10 -
15.10.2017 12:00:00 21,0 16,0 8 4 WNW - 10 -
15.10.2017 11:00:00 20,5 15,3 5 3 NW 1028,4 10 0,0
15.10.2017 10:00:00 20,0 14,0 9 5 - - 10 -
15.10.2017 09:00:00 17,0 13,0 5 3 ZZO - 10 -
15.10.2017 08:00:00 15,9 11,9 4 2 - 1027,7 10 -
15.10.2017 07:00:00 16,0 13,0 5 3 O - 10 -
15.10.2017 06:00:00 16,0 12,0 2 1 Z - 10 -
15.10.2017 05:00:00 15,4 11,9 5 3 Z 1026,9 10 0,0
15.10.2017 04:00:00 16,0 13,0 8 4 ZZO - 10 -
15.10.2017 03:00:00 17,0 12,0 8 4 ZZO - 10 -
15.10.2017 02:00:00 16,7 12,2 21 11 NNO 1027,3 10 -
15.10.2017 01:00:00 17,0 13,0 4 2 - - 10 -
15.10.2017 00:00:00 19,0 14,0 5 3 ZZO - 10 -
14.10.2017 23:00:00 19,4 14,1 13 7 O 1027,2 10 0,0
14.10.2017 22:00:00 20,0 15,0 26 14 NO - 10 -
14.10.2017 21:00:00 20,0 15,0 28 15 ONO - 10 -

tt = temperatuur
td = dauwpunt
ff = windsnelheid
dd = windrichting
ppp = luchtdruk
vv = zicht
rr = neerslag

Weerstations in de omgeving